Time,TemperatureF,DewpointF,PressureIn,WindDirection,WindDirectionDegrees,WindSpeedMPH,WindSpeedGustMPH,Humidity,HourlyPrecipIn,Conditions,Clouds,dailyrainin,SoftwareType,DateUTC
2013-02-06 00:21:00,30.0,26.0,30.19,NNE,20,0.0,0.0,84,0.00,,,0.00,,2013-02-06 06:21:00,
2013-02-06 00:31:00,30.0,26.0,30.19,NNE,19,0.0,0.0,84,0.00,,,0.00,,2013-02-06 06:31:00,
2013-02-06 00:42:00,30.0,26.0,30.19,NNE,19,0.0,0.0,84,0.00,,,0.00,,2013-02-06 06:42:00,
2013-02-06 00:52:00,30.0,26.0,30.19,NNE,19,0.0,0.0,85,0.00,,,0.00,,2013-02-06 06:52:00,
2013-02-06 01:01:00,30.0,26.0,30.19,NNE,19,0.0,0.0,85,0.00,,,0.00,,2013-02-06 07:01:00,
2013-02-06 01:11:00,30.0,26.0,30.19,NNE,19,0.0,0.0,85,0.00,,,0.00,,2013-02-06 07:11:00,
2013-02-06 01:21:00,29.0,25.0,30.19,NNE,19,0.0,0.0,85,0.00,,,0.00,,2013-02-06 07:21:00,
2013-02-06 01:32:00,29.0,25.0,30.19,NNE,21,0.0,0.0,86,0.00,,,0.00,,2013-02-06 07:32:00,
2013-02-06 01:41:00,29.0,25.0,30.19,NNE,21,0.0,0.0,86,0.00,,,0.00,,2013-02-06 07:41:00,
2013-02-06 01:52:00,28.0,24.0,30.19,NE,36,0.0,0.0,86,0.00,,,0.00,,2013-02-06 07:52:00,
2013-02-06 02:01:00,28.0,24.0,30.20,NE,37,0.0,0.0,86,0.00,,,0.00,,2013-02-06 08:01:00,
2013-02-06 02:11:00,28.0,24.0,30.20,NE,37,0.0,0.0,86,0.00,,,0.00,,2013-02-06 08:11:00,
2013-02-06 02:21:00,28.0,25.0,30.21,NE,36,0.0,0.0,87,0.00,,,0.00,,2013-02-06 08:21:00,
2013-02-06 02:31:00,28.0,25.0,30.20,NE,37,0.0,0.0,87,0.00,,,0.00,,2013-02-06 08:31:00,
2013-02-06 02:41:00,28.0,25.0,30.20,NE,37,0.0,0.0,87,0.00,,,0.00,,2013-02-06 08:41:00,
2013-02-06 02:53:00,28.0,25.0,30.19,NE,37,0.0,0.0,87,0.00,,,0.00,,2013-02-06 08:53:00,
2013-02-06 03:01:00,28.0,25.0,30.20,NE,37,0.0,0.0,87,0.00,,,0.00,,2013-02-06 09:01:00,
2013-02-06 03:11:00,28.0,25.0,30.20,NE,37,0.0,0.0,87,0.00,,,0.00,,2013-02-06 09:11:00,
2013-02-06 03:21:00,28.0,25.0,30.20,NE,36,0.0,0.0,87,0.00,,,0.00,,2013-02-06 09:21:00,
2013-02-06 03:31:00,27.0,24.0,30.19,NE,37,0.0,0.0,87,0.00,,,0.00,,2013-02-06 09:31:00,
2013-02-06 03:41:00,27.0,24.0,30.19,NE,37,0.0,0.0,87,0.00,,,0.00,,2013-02-06 09:41:00,
2013-02-06 03:52:00,27.0,24.0,30.19,NE,37,0.0,0.0,87,0.00,,,0.00,,2013-02-06 09:52:00,
2013-02-06 04:01:00,27.0,24.0,30.21,NE,37,0.0,0.0,88,0.00,,,0.00,,2013-02-06 10:01:00,
2013-02-06 04:11:00,27.0,24.0,30.21,NE,37,0.0,0.0,88,0.00,,,0.00,,2013-02-06 10:11:00,
2013-02-06 04:21:00,26.0,23.0,30.21,NE,37,0.0,0.0,88,0.00,,,0.00,,2013-02-06 10:21:00,
2013-02-06 04:31:00,26.0,23.0,30.22,NE,37,0.0,0.0,88,0.00,,,0.00,,2013-02-06 10:31:00,
2013-02-06 04:42:00,26.0,23.0,30.22,NE,37,0.0,0.0,88,0.00,,,0.00,,2013-02-06 10:42:00,
2013-02-06 04:52:00,26.0,23.0,30.22,NE,38,0.0,0.0,88,0.00,,,0.00,,2013-02-06 10:52:00,
2013-02-06 05:01:00,26.0,23.0,30.22,NE,37,0.0,0.0,88,0.00,,,0.00,,2013-02-06 11:01:00,
2013-02-06 05:11:00,26.0,23.0,30.22,NE,37,0.0,0.0,88,0.00,,,0.00,,2013-02-06 11:11:00,
2013-02-06 05:22:00,25.0,22.0,30.21,NE,37,0.0,0.0,88,0.00,,,0.00,,2013-02-06 11:22:00,
2013-02-06 05:32:00,26.0,23.0,30.22,NE,37,0.0,0.0,88,0.00,,,0.00,,2013-02-06 11:32:00,
2013-02-06 05:42:00,26.0,23.0,30.22,NE,37,0.0,0.0,88,0.00,,,0.00,,2013-02-06 11:42:00,
2013-02-06 05:53:00,26.0,23.0,30.23,NE,38,0.0,0.0,88,0.00,,,0.00,,2013-02-06 11:53:00,
2013-02-06 06:01:00,26.0,23.0,30.22,NE,36,0.0,0.0,89,0.00,,,0.00,,2013-02-06 12:01:00,
2013-02-06 06:12:00,26.0,23.0,30.22,NE,36,0.0,0.0,89,0.00,,,0.00,,2013-02-06 12:12:00,
2013-02-06 06:22:00,26.0,23.0,30.22,NE,37,0.0,0.0,88,0.00,,,0.00,,2013-02-06 12:22:00,
2013-02-06 06:32:00,27.0,24.0,30.22,East,82,0.0,0.0,89,0.00,,,0.00,,2013-02-06 12:32:00,
2013-02-06 06:42:00,27.0,24.0,30.22,East,82,0.0,0.0,89,0.00,,,0.00,,2013-02-06 12:42:00,
2013-02-06 06:52:00,28.0,25.0,30.23,East,84,0.0,0.0,89,0.00,,,0.00,,2013-02-06 12:52:00,
2013-02-06 07:01:00,29.0,26.0,30.23,East,95,0.0,0.0,90,0.00,,,0.00,,2013-02-06 13:01:00,
2013-02-06 07:12:00,29.0,26.0,30.23,East,95,0.0,0.0,90,0.00,,,0.00,,2013-02-06 13:12:00,
2013-02-06 07:22:00,29.0,26.0,30.23,East,91,0.0,0.0,89,0.00,,,0.00,,2013-02-06 13:22:00,
2013-02-06 07:31:00,28.0,25.0,30.23,East,94,0.0,0.0,89,0.00,,,0.00,,2013-02-06 13:31:00,
2013-02-06 07:42:00,28.0,25.0,30.23,East,94,0.0,0.0,89,0.00,,,0.00,,2013-02-06 13:42:00,
2013-02-06 07:52:00,27.0,24.0,30.23,East,94,0.0,0.0,89,0.00,,,0.00,,2013-02-06 13:52:00,
2013-02-06 08:01:00,28.0,25.0,30.23,East,94,0.0,0.0,90,0.00,,,0.00,,2013-02-06 14:01:00,
2013-02-06 08:11:00,28.0,25.0,30.23,East,94,0.0,0.0,90,0.00,,,0.00,,2013-02-06 14:11:00,
2013-02-06 08:22:00,30.0,27.0,30.24,East,94,0.0,0.0,90,0.00,,,0.00,,2013-02-06 14:22:00,
2013-02-06 08:32:00,34.0,32.0,30.24,East,94,0.0,0.0,92,0.00,,,0.00,,2013-02-06 14:32:00,
2013-02-06 08:41:00,34.0,32.0,30.24,East,94,0.0,0.0,92,0.00,,,0.00,,2013-02-06 14:41:00,
2013-02-06 08:52:00,36.0,34.0,30.25,SE,138,0.0,0.0,91,0.00,,,0.00,,2013-02-06 14:52:00,
2013-02-06 09:01:00,37.0,34.0,30.25,SSE,152,0.0,0.0,88,0.00,,,0.00,,2013-02-06 15:01:00,
2013-02-06 09:11:00,37.0,34.0,30.25,SSE,152,0.0,0.0,88,0.00,,,0.00,,2013-02-06 15:11:00,
2013-02-06 09:21:00,39.0,34.0,30.25,SSE,148,0.0,0.0,83,0.00,,,0.00,,2013-02-06 15:21:00,
2013-02-06 09:31:00,39.0,32.0,30.25,ESE,120,0.0,0.0,77,0.00,,,0.00,,2013-02-06 15:31:00,
2013-02-06 09:41:00,39.0,32.0,30.25,ESE,120,0.0,0.0,77,0.00,,,0.00,,2013-02-06 15:41:00,
2013-02-06 09:52:00,40.0,32.0,30.26,SSE,152,0.0,0.0,73,0.00,,,0.00,,2013-02-06 15:52:00,
2013-02-06 10:01:00,42.0,33.0,30.26,SE,136,0.0,0.0,69,0.00,,,0.00,,2013-02-06 16:01:00,
2013-02-06 10:11:00,42.0,33.0,30.26,SE,136,0.0,0.0,69,0.00,,,0.00,,2013-02-06 16:11:00,
2013-02-06 10:21:00,42.0,31.0,30.27,SE,134,0.0,0.0,66,0.00,,,0.00,,2013-02-06 16:21:00,
2013-02-06 10:32:00,43.0,32.0,30.28,SE,135,0.0,0.0,65,0.00,,,0.00,,2013-02-06 16:32:00,
2013-02-06 10:42:00,43.0,32.0,30.28,SE,135,0.0,0.0,65,0.00,,,0.00,,2013-02-06 16:42:00,
2013-02-06 10:52:00,44.0,32.0,30.28,SE,134,0.0,0.0,63,0.00,,,0.00,,2013-02-06 16:52:00,
2013-02-06 11:02:00,44.0,31.0,30.28,SE,142,0.0,0.0,61,0.00,,,0.00,,2013-02-06 17:02:00,
2013-02-06 11:11:00,44.0,31.0,30.28,SE,142,0.0,0.0,61,0.00,,,0.00,,2013-02-06 17:11:00,
2013-02-06 11:21:00,45.0,32.0,30.27,SE,126,0.0,0.0,59,0.00,,,0.00,,2013-02-06 17:21:00,
2013-02-06 11:32:00,46.0,32.0,30.27,SE,130,0.0,0.0,58,0.00,,,0.00,,2013-02-06 17:32:00,
2013-02-06 11:41:00,46.0,32.0,30.27,SE,130,0.0,0.0,58,0.00,,,0.00,,2013-02-06 17:41:00,
2013-02-06 11:52:00,47.0,33.0,30.27,ESE,113,0.0,0.0,59,0.00,,,0.00,,2013-02-06 17:52:00,
2013-02-06 12:01:00,48.0,34.0,30.26,ESE,120,0.0,0.0,58,0.00,,,0.00,,2013-02-06 18:01:00,
2013-02-06 12:11:00,48.0,33.0,30.25,SSE,148,0.0,0.0,56,0.00,,,0.00,,2013-02-06 18:11:00,
2013-02-06 12:23:00,48.0,33.0,30.25,SSE,148,0.0,0.0,56,0.00,,,0.00,,2013-02-06 18:23:00,
2013-02-06 12:32:00,48.0,33.0,30.24,SSE,155,0.0,0.0,55,0.00,,,0.00,,2013-02-06 18:32:00,
2013-02-06 12:42:00,48.0,33.0,30.24,SSE,155,0.0,0.0,55,0.00,,,0.00,,2013-02-06 18:42:00,
2013-02-06 12:52:00,49.0,34.0,30.23,SE,138,0.0,0.0,55,0.00,,,0.00,,2013-02-06 18:52:00,
2013-02-06 13:01:00,50.0,34.0,30.22,SSE,152,0.0,0.0,53,0.00,,,0.00,,2013-02-06 19:01:00,
2013-02-06 13:11:00,50.0,34.0,30.22,SSE,152,0.0,0.0,53,0.00,,,0.00,,2013-02-06 19:11:00,
2013-02-06 13:21:00,51.0,34.0,30.21,ESE,116,0.0,0.0,52,0.00,,,0.00,,2013-02-06 19:21:00,
2013-02-06 13:31:00,51.0,34.0,30.20,ESE,113,0.0,0.0,51,0.00,,,0.00,,2013-02-06 19:31:00,
2013-02-06 13:41:00,51.0,34.0,30.20,ESE,113,0.0,0.0,51,0.00,,,0.00,,2013-02-06 19:41:00,
2013-02-06 13:52:00,52.0,34.0,30.18,ESE,109,0.0,0.0,50,0.00,,,0.00,,2013-02-06 19:52:00,
2013-02-06 14:01:00,51.0,33.0,30.17,SE,144,0.0,0.0,49,0.00,,,0.00,,2013-02-06 20:01:00,
2013-02-06 14:11:00,51.0,33.0,30.17,SE,144,0.0,0.0,49,0.00,,,0.00,,2013-02-06 20:11:00,
2013-02-06 14:21:00,52.0,33.0,30.16,SE,125,0.0,0.0,48,0.00,,,0.00,,2013-02-06 20:21:00,
2013-02-06 14:32:00,52.0,33.0,30.16,ESE,113,0.0,0.0,49,0.00,,,0.00,,2013-02-06 20:32:00,
2013-02-06 14:41:00,52.0,33.0,30.16,ESE,113,0.0,0.0,49,0.00,,,0.00,,2013-02-06 20:41:00,
2013-02-06 14:52:00,52.0,33.0,30.15,ESE,109,0.0,0.0,49,0.00,,,0.00,,2013-02-06 20:52:00,
2013-02-06 15:01:00,52.0,33.0,30.15,ESE,103,0.0,0.0,48,0.00,,,0.00,,2013-02-06 21:01:00,
2013-02-06 15:11:00,52.0,33.0,30.15,ESE,103,0.0,0.0,48,0.00,,,0.00,,2013-02-06 21:11:00,
2013-02-06 15:21:00,52.0,33.0,30.15,SE,125,0.0,0.0,49,0.00,,,0.00,,2013-02-06 21:21:00,
2013-02-06 15:32:00,52.0,33.0,30.15,SE,135,0.0,0.0,49,0.00,,,0.00,,2013-02-06 21:32:00,
2013-02-06 15:41:00,52.0,33.0,30.15,SE,135,0.0,0.0,49,0.00,,,0.00,,2013-02-06 21:41:00,
2013-02-06 15:52:00,52.0,34.0,30.15,SE,130,0.0,0.0,50,0.00,,,0.00,,2013-02-06 21:52:00,
2013-02-06 16:01:00,52.0,34.0,30.15,SE,132,0.0,0.0,51,0.00,,,0.00,,2013-02-06 22:01:00,
2013-02-06 16:11:00,52.0,34.0,30.15,SE,132,0.0,0.0,51,0.00,,,0.00,,2013-02-06 22:11:00,
2013-02-06 16:21:00,52.0,35.0,30.15,SSE,159,0.0,0.0,52,0.00,,,0.00,,2013-02-06 22:21:00,
2013-02-06 16:31:00,51.0,34.0,30.14,ESE,118,0.0,0.0,53,0.00,,,0.00,,2013-02-06 22:31:00,
2013-02-06 16:42:00,51.0,34.0,30.14,ESE,118,0.0,0.0,53,0.00,,,0.00,,2013-02-06 22:42:00,
2013-02-06 16:52:00,50.0,34.0,30.15,SE,133,0.0,0.0,54,0.00,,,0.00,,2013-02-06 22:52:00,
2013-02-06 17:01:00,49.0,34.0,30.14,SSE,150,0.0,0.0,56,0.00,,,0.00,,2013-02-06 23:01:00,
2013-02-06 17:11:00,49.0,34.0,30.14,SSE,150,0.0,0.0,56,0.00,,,0.00,,2013-02-06 23:11:00,
2013-02-06 17:21:00,49.0,34.0,30.15,SE,132,0.0,0.0,57,0.00,,,0.00,,2013-02-06 23:21:00,
2013-02-06 17:32:00,48.0,34.0,30.14,ESE,121,0.0,0.0,58,0.00,,,0.00,,2013-02-06 23:32:00,
2013-02-06 17:42:00,48.0,34.0,30.14,ESE,121,0.0,0.0,58,0.00,,,0.00,,2013-02-06 23:42:00,
2013-02-06 17:52:00,48.0,34.0,30.14,SE,125,0.0,0.0,58,0.00,,,0.00,,2013-02-06 23:52:00,
2013-02-06 18:01:00,48.0,34.0,30.14,SE,125,0.0,0.0,59,0.00,,,0.00,,2013-02-07 00:01:00,
2013-02-06 18:11:00,48.0,34.0,30.14,SE,125,0.0,0.0,59,0.00,,,0.00,,2013-02-07 00:11:00,
2013-02-06 18:21:00,47.0,34.0,30.12,SE,130,0.0,0.0,60,0.00,,,0.00,,2013-02-07 00:21:00,
2013-02-06 18:31:00,47.0,34.0,30.11,ESE,120,0.0,0.0,60,0.00,,,0.00,,2013-02-07 00:31:00,
2013-02-06 18:42:00,47.0,34.0,30.11,ESE,120,0.0,0.0,60,0.00,,,0.00,,2013-02-07 00:42:00,
2013-02-06 18:52:00,46.0,33.0,30.11,ESE,119,0.0,0.0,60,0.00,,,0.00,,2013-02-07 00:52:00,
2013-02-06 19:01:00,46.0,33.0,30.12,ESE,118,0.0,0.0,61,0.00,,,0.00,,2013-02-07 01:01:00,
2013-02-06 19:11:00,46.0,33.0,30.12,ESE,118,0.0,0.0,61,0.00,,,0.00,,2013-02-07 01:11:00,
2013-02-06 19:21:00,46.0,33.0,30.12,ESE,116,0.0,0.0,61,0.00,,,0.00,,2013-02-07 01:21:00,
2013-02-06 19:31:00,46.0,33.0,30.12,ESE,115,0.0,0.0,61,0.00,,,0.00,,2013-02-07 01:31:00,
2013-02-06 19:41:00,46.0,33.0,30.12,ESE,115,0.0,0.0,61,0.00,,,0.00,,2013-02-07 01:41:00,
2013-02-06 19:52:00,45.0,32.0,30.11,SE,126,0.0,0.0,61,0.00,,,0.00,,2013-02-07 01:52:00,
2013-02-06 20:01:00,45.0,33.0,30.11,SE,131,0.0,0.0,62,0.00,,,0.00,,2013-02-07 02:01:00,
2013-02-06 20:11:00,45.0,33.0,30.11,SE,131,0.0,0.0,62,0.00,,,0.00,,2013-02-07 02:11:00,
2013-02-06 20:21:00,44.0,33.0,30.11,SE,133,0.0,0.0,64,0.00,,,0.00,,2013-02-07 02:21:00,
2013-02-06 20:31:00,44.0,32.0,30.11,SE,128,0.0,0.0,63,0.00,,,0.00,,2013-02-07 02:31:00,
2013-02-06 20:41:00,44.0,32.0,30.11,SE,128,0.0,0.0,63,0.00,,,0.00,,2013-02-07 02:41:00,
2013-02-06 20:52:00,44.0,32.0,30.11,SE,128,0.0,0.0,63,0.00,,,0.00,,2013-02-07 02:52:00,
2013-02-06 21:02:00,44.0,33.0,30.11,SE,128,0.0,0.0,64,0.00,,,0.00,,2013-02-07 03:02:00,
2013-02-06 21:11:00,44.0,33.0,30.11,SE,128,0.0,0.0,64,0.00,,,0.00,,2013-02-07 03:11:00,
2013-02-06 21:21:00,44.0,33.0,30.12,SE,138,0.0,0.0,64,0.00,,,0.00,,2013-02-07 03:21:00,
2013-02-06 21:31:00,44.0,33.0,30.12,SE,142,0.0,0.0,65,0.00,,,0.00,,2013-02-07 03:31:00,
2013-02-06 21:41:00,44.0,33.0,30.12,SE,142,0.0,0.0,65,0.00,,,0.00,,2013-02-07 03:41:00,
2013-02-06 21:52:00,44.0,33.0,30.12,SE,140,0.0,0.0,65,0.00,,,0.00,,2013-02-07 03:52:00,
2013-02-06 22:01:00,43.0,32.0,30.12,SE,132,0.0,0.0,66,0.00,,,0.00,,2013-02-07 04:01:00,
2013-02-06 22:11:00,43.0,32.0,30.12,SE,132,0.0,0.0,66,0.00,,,0.00,,2013-02-07 04:11:00,
2013-02-06 22:22:00,43.0,32.0,30.11,SE,128,0.0,0.0,66,0.00,,,0.00,,2013-02-07 04:22:00,
2013-02-06 22:31:00,43.0,33.0,30.11,SE,130,0.0,0.0,67,0.00,,,0.00,,2013-02-07 04:31:00,
2013-02-06 22:41:00,43.0,33.0,30.11,SE,130,0.0,0.0,67,0.00,,,0.00,,2013-02-07 04:41:00,
2013-02-06 22:53:00,42.0,32.0,30.11,SE,130,0.0,0.0,68,0.00,,,0.00,,2013-02-07 04:53:00,
2013-02-06 23:02:00,42.0,33.0,30.10,ESE,123,0.0,0.0,69,0.00,,,0.00,,2013-02-07 05:02:00,
2013-02-06 23:11:00,42.0,33.0,30.10,ESE,123,0.0,0.0,69,0.00,,,0.00,,2013-02-07 05:11:00,
2013-02-06 23:21:00,42.0,33.0,30.10,SE,129,0.0,0.0,69,0.00,,,0.00,,2013-02-07 05:21:00,
2013-02-06 23:32:00,42.0,33.0,30.10,SE,138,0.0,0.0,69,0.00,,,0.00,,2013-02-07 05:32:00,
2013-02-06 23:42:00,42.0,33.0,30.10,SE,138,0.0,0.0,69,0.00,,,0.00,,2013-02-07 05:42:00,
2013-02-06 23:52:00,41.0,32.0,30.10,SE,126,0.0,0.0,70,0.00,,,0.00,,2013-02-07 05:52:00,